Flag for Germany Weather past 2 weeks in Ellwangen (Jagst), Baden-Württemberg, Germany

Now
72 °F

Overcast.


Feels Like: 77 °F
Forecast: 52 / 68 °F
Wind: 13 mph from Southwest

Location: Stoetten

Current Time: Sep 1, 2015 at 1:17:11 PM

Latest Report: Sep 1, 2015 at 1:00 PM


Visibility: 28 mi

Pressure: 29.80 "Hg

Humidity: 52%

Dew point: 54 °F

Location of Ellwangen (Jagst)Location

Historic Weather in Ellwangen (Jagst) — Graph

°F

Ellwangen (Jagst) temperature yesterday

Maximum temperature yesterday: 84 °F (at 6:00 PM)
Minimum temperature yesterday: 68 °F (at 8:00 AM)
Average temperature yesterday: 77 °F

Past Weeks' High & Low Weather Summary

 TemperatureHumidityPressure
High87 °F (Aug 30, 5:00 PM)100% (Aug 18, 1:00 AM)30.28 "Hg (Aug 18, 1:00 AM)
Low48 °F (Aug 18, 7:00 AM)31% (Aug 31, 7:00 PM)29.67 "Hg (Aug 24, 3:00 PM)
Average64 °F68%30.01 "Hg
* Reported Aug 17 12:00 Noon — Sep 1 12:00 Noon, Ellwangen (Jagst), Weather by CustomWeather, © 2015

Note: Actual official high and low records may vary slightly from our data, if they occured in-between our weather recording intervals... More about our weather records

Advertising

Ellwangen (Jagst) weather history for previous 24 hours

 ConditionsComfort  
Time TempWeatherWind HumidityBarometerVisibility
12:00 PM
Tue, Sep 1
75 °FLight rain. Partly sunny.9 mph43%29.78 "Hg28 mi
11:00 AM76 °FPartly sunny.7 mph44%29.77 "Hg28 mi
10:00 AM76 °FScattered clouds.5 mph48%29.77 "Hg28 mi
9:00 AM72 °FPassing clouds.2 mph55%29.79 "Hg31 mi
8:00 AM68 °FPassing clouds.5 mph58%29.81 "Hg37 mi
7:00 AM69 °FPassing clouds.2 mph55%29.81 "Hg34 mi
5:00 AM68 °FClear.3 mph57%29.85 "Hg31 mi
4:00 AM68 °FClear.3 mph55%29.86 "Hg31 mi
3:00 AM70 °FClear.5 mph51%29.85 "Hg31 mi
2:00 AM72 °FClear.5 mph49%29.85 "Hg34 mi
1:00 AM70 °FClear.3 mph50%29.86 "Hg34 mi
11:00 PM
Mon, Aug 31
74 °FClear.5 mph43%29.85 "Hg34 mi
10:00 PM75 °FClear.6 mph45%29.85 "Hg34 mi
9:00 PM76 °FPassing clouds.6 mph44%29.84 "Hg47 mi
8:00 PM79 °FPassing clouds.6 mph37%29.83 "Hg47 mi
7:00 PM82 °FPassing clouds.5 mph31%29.81 "Hg47 mi
6:00 PM84 °FPassing clouds.3 mph35%29.81 "Hg47 mi
5:00 PM83 °FPassing clouds.2 mph37%29.83 "Hg47 mi
4:00 PM83 °FPassing clouds.3 mph36%29.84 "Hg43 mi
3:00 PM84 °FPassing clouds.2 mph32%29.87 "Hg43 mi
2:00 PM82 °FPassing clouds.3 mph34%29.89 "Hg47 mi
1:00 PM81 °FPassing clouds.5 mph35%29.90 "Hg47 mi
Weather by CustomWeather, © 2015

See weather overviewHow to use our weather pages